CW8490 Weather Reports


Display with metric or nautical units.
time (UTC)temp
F
wind
direction
speed
MPH
gust
MPH
rain 1hr
in
rain 24hr
in
rain mn
in
humidity
%
barometer
mb
20260503011717 56 0.0 0.0 0.00 0.00 0.00 46 1017.4
20260503010717 58 0.0 0.0 0.00 0.00 0.00 45 1017.5
20260503005737 60 0.0 0.0 0.00 0.00 0.00 44 1017.6
20260503004717 61 0.0 0.0 0.00 0.00 0.00 41 1017.7
20260503003737 63 0.0 1.0 0.00 0.00 0.00 38 1017.7
20260503002717 63 293 1.0 2.0 0.00 0.00 0.00 38 1017.8
20260503001737 64 0.0 0.0 0.00 0.00 0.00 37 1017.7
20260503000717 64 293 1.0 2.0 0.00 0.00 0.00 39 1017.7
20260502235717 64 248 1.0 2.0 0.00 0.00 0.00 38 1017.7
20260502234737 65 293 1.0 3.0 0.00 0.00 0.00 37 1017.8
20260502233717 64 225 1.0 4.0 0.00 0.00 0.00 36 1017.7
20260502232717 64 293 1.0 2.0 0.00 0.00 0.00 39 1017.8
20260502231717 64 0.0 1.0 0.00 0.00 0.00 37 1017.8
20260502230737 65 293 2.0 3.0 0.00 0.00 0.00 39 1018.0
20260502225717 67 0.0 1.0 0.00 0.00 0.00 40 1018.1
20260502224717 67 0.0 1.0 0.00 0.00 0.00 38 1018.1
20260502223737 67 315 1.0 2.0 0.00 0.00 0.00 37 1018.2
20260502222717 66 315 1.0 2.0 0.00 0.00 0.00 40 1018.2
20260502221737 65 270 2.0 5.0 0.00 0.00 0.00 37 1018.2
20260502220717 65 0.0 1.0 0.00 0.00 0.00 43 1018.3
20260502215717 65 0.0 1.0 0.00 0.00 0.00 43 1018.4
20260502214717 64 0.0 1.0 0.00 0.00 0.00 37 1018.4
20260502213717 65 248 3.0 4.0 0.00 0.00 0.00 37 1018.5
20260502212717 64 0.0 1.0 0.00 0.00 0.00 39 1018.6
20260502211717 63 0.0 1.0 0.00 0.00 0.00 43 1018.7
20260502210717 64 23 3.0 4.0 0.00 0.00 0.00 41 1018.7
20260502205717 64 68 1.0 2.0 0.00 0.00 0.00 38 1018.9
20260502204717 63 0.0 1.0 0.00 0.00 0.00 41 1018.9
20260502203717 63 315 1.0 3.0 0.00 0.00 0.00 46 1019.0
20260502202717 63 338 2.0 3.0 0.00 0.00 0.00 47 1019.1
20260502201717 63 23 4.0 5.0 0.00 0.00 0.00 45 1019.2
20260502200717 62 45 3.0 4.0 0.00 0.00 0.00 45 1019.3
20260502195737 63 270 3.0 5.0 0.00 0.00 0.00 43 1019.4
20260502194717 63 0 2.0 3.0 0.00 0.00 0.00 46 1019.4
20260502193737 62 0 2.0 3.0 0.00 0.00 0.00 48 1019.4
20260502192717 62 315 1.0 4.0 0.00 0.00 0.00 47 1019.6
20260502191827 62 0.0 0.0 0.00 0.00 0.00 42 1019.7
20260502191337 62 23 3.0 4.0 0.00 0.00 0.00 39 1019.8
20260502190317 62 90 1.0 3.0 0.00 0.00 0.00 42 1020.0
20260502185317 62 225 1.0 2.0 0.00 0.00 0.00 44 1020.1
20260502184317 61 0.0 0.0 0.00 0.00 0.00 43 1020.2
20260502183318 61 338 3.0 5.0 0.00 0.00 0.00 45 1020.3
20260502182317 61 23 3.0 4.0 0.00 0.00 0.00 42 1020.4
20260502181352 61 0.0 0.0 0.00 0.00 0.00 46 1020.6
20260502180617 61 45 2.0 4.0 0.00 0.00 0.00 45 1020.7
20260502163617 58 23 2.0 3.0 0.00 0.00 0.00 55 1021.0
20260502162617 58 315 1.0 3.0 0.00 0.00 0.00 52 1021.0
20260502161618 58 135 1.0 2.0 0.00 0.00 0.00 54 1021.0
20260502160656 57 0.0 0.0 0.00 0.00 0.00 55 1020.9
20260502151818 57 0 3.0 5.0 0.00 0.00 0.00 58 1021.1
20260502150818 56 0 1.0 1.0 0.00 0.00 0.00 62 1020.9
20260502123816 44 0.0 0.0 0.00 0.00 0.00 79 1020.4
20260502122836 44 0.0 1.0 0.00 0.00 0.00 78 1020.1
20260502121916 43 0.0 1.0 0.00 0.00 0.00 80 1020.1
20260502120816 42 0 1.0 1.0 0.00 0.00 0.00 81 1019.9
20260502115816 41 0.0 1.0 0.00 0.00 0.00 82 1019.6
20260502114816 40 0 1.0 1.0 0.00 0.00 0.00 82 1019.4
20260502113816 40 0 1.0 1.0 0.00 0.00 0.00 82 1019.4
20260502112816 40 0 1.0 1.0 0.00 0.00 0.00 82 1019.2
20260502111816 39 0.0 1.0 0.00 0.00 0.00 83 1019.2
20260502110836 39 0.0 0.0 0.00 0.00 0.00 83 1019.1
20260502105916 39 0.0 1.0 0.00 0.00 0.00 83 1019.2
20260502104916 40 0 1.0 1.0 0.00 0.00 0.00 83 1019.1
20260502103916 40 0.0 0.0 0.00 0.00 0.00 83 1018.9
20260502102916 40 0.0 0.0 0.00 0.00 0.00 82 1019.0
20260502101916 40 0.0 0.0 0.00 0.00 0.00 82 1018.8
20260502100936 40 0.0 0.0 0.00 0.00 0.00 81 1018.9
20260502090916 42 0 1.0 1.0 0.00 0.00 0.00 76 1018.6
20260502070616 41 0.0 0.0 0.00 0.00 0.00 76 1018.3
20260502065616 42 0.0 0.0 0.00 0.00 0.00 73 1018.3
20260502064616 43 0.0 0.0 0.00 0.00 0.00 73 1018.4
20260502063616 44 0.0 0.0 0.00 0.00 0.00 70 1018.4
20260502062655 45 0.0 0.0 0.00 0.00 0.00 69 1018.4
20260502062117 46 0.0 0.0 0.00 0.00 0.00 69 1018.5
20260502061137 47 0.0 0.0 0.00 0.00 0.00 68 1018.5
20260502060116 47 0 1.0 1.0 0.00 0.00 0.00 65 1018.5
20260502055117 48 0 1.0 2.0 0.00 0.00 0.00 65 1018.6
20260502054157 48 0.0 0.0 0.00 0.00 0.00 66 1018.5
20260502053617 48 0 1.0 2.0 0.00 0.00 0.00 65 1018.6
20260502052617 49 0 1.0 1.0 0.00 0.00 0.00 65 1018.5
20260502051616 49 0 1.0 2.0 0.00 0.00 0.00 65 1018.5
20260502050617 49 0 1.0 2.0 0.00 0.00 0.00 66 1018.5
20260502045617 48 0 2.0 3.0 0.00 0.00 0.00 68 1018.4
20260502044617 48 0 1.0 2.0 0.00 0.00 0.00 69 1018.4
20260502043617 46 0 2.0 2.0 0.00 0.00 0.00 73 1018.3
20260502042637 45 0.0 0.0 0.00 0.00 0.00 78 1018.1
20260502041637 46 0.0 0.0 0.00 0.00 0.00 77 1018.2
20260502040617 46 0.0 0.0 0.00 0.00 0.00 78 1018.1
20260502035617 46 0.0 0.0 0.00 0.00 0.00 71 1018.0
20260502034617 47 0.0 0.0 0.00 0.00 0.00 72 1018.0
20260502033617 47 0.0 0.0 0.00 0.00 0.00 72 1017.9
20260502032701 47 0.0 0.0 0.00 0.00 0.00 75 1017.8
20260502031818 46 0.0 0.0 0.00 0.00 0.00 73 1017.7
20260502030818 47 0.0 0.0 0.00 0.00 0.00 70 1017.7
20260502025837 48 0.0 0.0 0.00 0.00 0.00 70 1017.6
20260502024818 49 0.0 0.0 0.00 0.00 0.00 67 1017.5
20260502023916 50 0.0 0.0 0.00 0.00 0.00 63 1017.4
20260502023800 51 0.0 0.0 0.00 0.00 0.00 63 1017.4
20260502022718 52 0.0 0.0 0.00 0.00 0.00 62 1017.2
20260502021718 54 0.0 0.0 0.00 0.00 0.00 60 1017.1
20260502020717 55 23 1.0 1.0 0.00 0.00 0.00 57 1017.0
20260502015717 55 23 1.0 2.0 0.00 0.00 0.00 57 1016.8
20260502014716 56 0 1.0 1.0 0.00 0.00 0.00 55 1016.6
20260502014559 56 0.0 0.0 0.00 0.00 0.00 54 1016.6
20260502014318 56 23 2.0 2.0 0.00 0.00 0.00 54 1016.6
20260502013317 56 45 2.0 3.0 0.00 0.00 0.00 58 1016.3